Date,TemperatureHighF,TemperatureAvgF,TemperatureLowF,DewpointHighF,DewpointAvgF,DewpointLowF,HumidityHigh,HumidityAvg,HumidityLow,PressureMaxIn,PressureMinIn,WindSpeedMaxMPH,WindSpeedAvgMPH,GustSpeedMaxMPH,PrecipitationSumIn
2013-1-1,76.5,64.5,55.1,61.0,57.9,-18.8,98,80,58,30.21,30.03,20,4,20,0.00
2013-1-2,77.1,68.8,61.7,72.6,65.7,-19.5,99,90,73,30.20,29.98,14,4,14,0.22
2013-1-3,72.5,64.0,58.6,67.7,63.1,57.8,100,97,83,30.16,30.01,17,5,17,0.64
2013-1-4,59.9,57.2,54.3,58.4,56.3,53.7,98,97,94,30.27,30.15,12,5,12,0.21
2013-1-5,72.3,60.1,51.9,61.9,56.2,49.3,97,87,70,30.29,30.17,12,5,12,0.00
2013-1-6,77.8,64.4,59.7,69.1,62.5,58.3,99,94,75,30.19,30.07,12,5,12,0.01
2013-1-7,68.0,61.9,56.8,63.3,58.8,-42.1,98,90,68,30.20,30.09,16,7,16,0.84
2013-1-8,82.0,70.2,60.4,69.8,65.1,59.4,98,85,63,30.21,30.10,12,4,12,0.00
2013-1-9,83.1,74.3,67.5,71.7,68.3,66.1,98,83,61,30.27,30.15,21,6,21,0.00
2013-1-10,82.7,74.5,67.4,70.3,66.0,-32.2,98,76,53,30.27,30.19,21,6,21,0.75
2013-1-11,82.1,71.9,64.7,67.9,65.2,63.8,97,81,56,30.24,30.11,20,5,20,0.00
2013-1-12,81.8,70.4,64.3,68.7,66.1,63.4,97,87,59,30.16,30.07,21,5,21,0.00
2013-1-13,79.5,70.9,64.5,68.3,65.6,62.8,95,84,64,30.15,30.04,14,5,14,0.00
2013-1-14,79.5,69.0,62.9,66.4,62.7,59.1,97,82,54,30.17,30.09,12,3,12,1.13
2013-1-15,80.2,68.2,60.6,67.5,63.1,59.1,97,85,59,30.21,30.03,16,3,16,0.00
2013-1-16,80.7,69.1,63.2,67.7,63.8,61.8,98,85,54,30.09,29.99,12,3,12,0.01
2013-1-17,70.3,62.7,52.3,68.4,59.2,44.5,99,89,67,30.15,29.97,28,10,28,1.66
2013-1-18,62.4,54.1,42.6,54.0,46.5,36.5,83,76,69,30.31,30.15,21,9,21,0.00
2013-1-19,75.5,65.4,52.8,60.6,56.3,47.1,85,73,59,30.27,30.12,16,7,16,0.45
2013-1-20,73.0,64.0,58.5,63.0,58.5,-18.6,94,83,70,30.17,30.04,15,5,15,1.20
2013-1-21,70.5,63.6,60.0,60.7,57.1,52.2,91,80,67,30.10,30.02,16,5,16,0.00
2013-1-22,65.3,58.9,49.8,53.2,41.5,32.8,78,55,32,30.28,30.07,16,6,16,0.00
2013-1-23,65.0,53.9,45.7,47.2,39.9,33.3,90,61,35,30.36,30.27,14,5,14,1.27
2013-1-24,66.8,55.4,45.4,56.2,49.4,42.8,96,82,50,30.34,30.25,12,3,12,1.05
2013-1-25,73.5,58.5,48.8,58.4,52.1,46.8,98,82,42,30.31,30.19,12,2,12,0.01
2013-1-26,76.7,61.4,52.3,60.9,56.8,51.1,99,86,67,30.28,30.18,12,3,12,1.21
2013-1-27,78.3,63.2,53.4,63.0,57.2,52.8,99,83,45,30.46,30.20,14,3,14,1.17
2013-1-28,80.0,69.1,60.6,65.6,62.4,57.2,98,81,54,30.31,30.19,18,6,18,0.00
2013-1-29,82.0,71.1,61.8,69.2,65.2,61.1,99,83,59,30.22,30.07,20,6,20,0.00
2013-1-30,102.0,72.6,67.2,67.7,66.2,61.4,92,81,63,30.07,29.88,28,12,28,0.00
2013-1-31,66.0,56.5,48.3,61.7,45.9,35.0,97,69,45,30.24,29.95,29,10,29,0.12